UPSVAC Airport Information Service

Honolulu International Airport

ICAO: PHNL Country: United States
Latitude: 21.3187 Longitude: -157.922
Latest Arrival : UPS1349 (KSDF-PHNL) Latest Departure : UPS3557 (PHNL-KSDF)


WX CaptureLIVE
Data provided by noaa.gov | Fetched at 16:09:12

METAR : PHNL 191453Z 08006KT 10SM FEW025 FEW055 BKN065 24/19 A3000

TAF : PHNL 191501Z 1915/2018 07008KT P6SM VCSH SCT025 BKN040 FM192000 06014G22KT P6SM FEW025 SCT050 FM200500 06010KT P6SM FEW025 SCT045


Runway Data for PHNL
Data provided by openaviationdata.com

Runway ID Mag Var Hdg Length Elevation Surface ILS Freq ILS Id ILS Slope
04L 11 41° 6958 ft 13 ft Asphalt -- -- --
04R 11 41° 9009 ft 13 ft Asphalt 110.5 IIUM 3
08L 11 79° 12294 ft 13 ft Asphalt 111.7 IHNL 3
08R 11 79° 11995 ft 13 ft Asphalt -- -- --
22L 11 221° 9009 ft 13 ft Asphalt -- -- --
22R 11 221° 6958 ft 13 ft Asphalt -- -- --
26L 11 259° 11995 ft 13 ft Asphalt 109.1 IEPC 0
26R 11 259° 12294 ft 13 ft Asphalt -- -- --

Honolulu International Airport, United States
Use only for reference purposes



Not for navigational purposes.